| time (UTC) | temp C | wind direction | speed KPH | gust KPH | rain 1hr cm | rain 24hr cm | rain mn cm | humidity % | barometer mb |
| 20260502210055 | 10 | 0 | 0.0 | 0.0 | 0.00 | 0.86 | 0.86 | 100 | 1011.4 |
| 20260502204558 | 10 | 0 | 0.0 | 0.0 | 0.00 | 0.86 | 0.86 | 100 | 1011.4 |
| 20260502203100 | 10 | 0 | 0.0 | 0.0 | 0.00 | 0.86 | 0.86 | 100 | 1011.3 |
| 20260502201549 | 10 | 0 | 0.0 | 0.0 | 0.00 | 0.86 | 0.86 | 99 | 1011.5 |
| 20260502200050 | 10 | 0 | 0.0 | 0.0 | 0.00 | 0.86 | 0.86 | 99 | 1011.3 |
| 20260502194550 | 10 | 0 | 0.0 | 1.6 | 0.00 | 0.86 | 0.86 | 99 | 1011.3 |
| 20260502193045 | 10 | 26 | 1.6 | 3.2 | 0.00 | 0.86 | 0.86 | 99 | 1011.4 |
| 20260502191546 | 10 | 0 | 0.0 | 0.0 | 0.00 | 0.86 | 0.86 | 99 | 1011.6 |
| 20260502190054 | 10 | 0 | 0.0 | 0.0 | 0.03 | 0.86 | 0.86 | 99 | 1011.7 |
| 20260502184548 | 10 | 0 | 0.0 | 1.6 | 0.00 | 0.84 | 0.84 | 99 | 1011.8 |
| 20260502183059 | 10 | 0 | 0.0 | 0.0 | 0.00 | 0.84 | 0.84 | 99 | 1011.7 |
| 20260502181553 | 10 | 0 | 0.0 | 0.0 | 0.03 | 0.84 | 0.84 | 99 | 1011.9 |
| 20260502163110 | 10 | 0 | 0.0 | 3.2 | 0.10 | 0.74 | 0.74 | 98 | 1012.7 |
| 20260502161543 | 10 | 0 | 0.0 | 3.2 | 0.10 | 0.74 | 0.74 | 98 | 1012.8 |
| 20260502151545 | 11 | 264 | 0.0 | 6.4 | 0.23 | 0.61 | 0.61 | 97 | 1013.3 |
| 20260502130107 | 11 | 39 | 1.6 | 4.8 | 0.05 | 0.05 | 0.05 | 91 | 1014.5 |
| 20260502123057 | 12 | 335 | 0.0 | 3.2 | 0.00 | 0.00 | 0.00 | 87 | 1015.0 |
| 20260502121547 | 12 | 194 | 1.6 | 4.8 | 0.00 | 0.00 | 0.00 | 87 | 1015.4 |
| 20260502114552 | 13 | 246 | 0.0 | 4.8 | 0.00 | 0.00 | 0.00 | 84 | 1015.7 |
| 20260502113043 | 13 | 255 | 1.6 | 4.8 | 0.00 | 0.00 | 0.00 | 83 | 1015.8 |
| 20260502111550 | 13 | 298 | 1.6 | 4.8 | 0.00 | 0.00 | 0.00 | 82 | 1015.9 |
| 20260502110047 | 14 | 360 | 1.6 | 6.4 | 0.00 | 0.00 | 0.00 | 80 | 1015.9 |
| 20260502104546 | 14 | 208 | 0.0 | 4.8 | 0.00 | 0.00 | 0.00 | 81 | 1016.2 |
| 20260502103045 | 14 | 0 | 0.0 | 6.4 | 0.00 | 0.00 | 0.00 | 81 | 1016.4 |
| 20260502101544 | 14 | 236 | 0.0 | 8.0 | 0.00 | 0.00 | 0.00 | 81 | 1016.7 |
| 20260502070055 | 10 | 25 | 0.0 | 1.6 | 0.00 | 0.00 | 0.00 | 99 | 1017.9 |
| 20260502064550 | 10 | 0 | 0.0 | 1.6 | 0.00 | 0.03 | 0.00 | 99 | 1017.8 |
| 20260502063045 | 9 | 0 | 0.0 | 3.2 | 0.00 | 0.03 | 0.00 | 99 | 1017.8 |
| 20260502061548 | 9 | 0 | 0.0 | 0.0 | 0.00 | 0.03 | 0.00 | 99 | 1017.9 |
| 20260502060051 | 8 | 0 | 0.0 | 0.0 | 0.00 | 0.03 | 0.00 | 99 | 1017.9 |
| 20260502054555 | 8 | 0 | 0.0 | 0.0 | 0.00 | 0.03 | 0.00 | 99 | 1018.2 |
| 20260502053049 | 8 | 0 | 0.0 | 1.6 | 0.00 | 0.03 | 0.00 | 98 | 1018.2 |
| 20260502051546 | 8 | 0 | 0.0 | 0.0 | 0.00 | 0.03 | 0.00 | 99 | 1018.1 |
| 20260502050049 | 8 | 0 | 0.0 | 0.0 | 0.00 | 0.03 | 0.00 | 99 | 1018.3 |
| 20260502044551 | 8 | 0 | 0.0 | 0.0 | 0.00 | 0.03 | 0.00 | 99 | 1018.3 |
| 20260502043052 | 8 | 0 | 0.0 | 0.0 | 0.00 | 0.03 | 0.00 | 99 | 1018.2 |
| 20260502041548 | 8 | 0 | 0.0 | 0.0 | 0.00 | 0.03 | 0.00 | 99 | 1018.2 |
| 20260502040047 | 8 | 0 | 0.0 | 0.0 | 0.00 | 0.03 | 0.00 | 98 | 1018.2 |
| 20260502034545 | 8 | 0 | 0.0 | 0.0 | 0.00 | 0.03 | 0.00 | 98 | 1018.3 |
| 20260502033047 | 8 | 0 | 0.0 | 0.0 | 0.00 | 0.03 | 0.00 | 99 | 1018.4 |
| 20260502031551 | 8 | 0 | 0.0 | 0.0 | 0.00 | 0.03 | 0.00 | 98 | 1018.5 |
| 20260502030046 | 8 | 0 | 0.0 | 0.0 | 0.00 | 0.03 | 0.00 | 98 | 1018.7 |
| 20260502024545 | 8 | 0 | 0.0 | 0.0 | 0.00 | 0.03 | 0.00 | 98 | 1018.9 |
| 20260502023048 | 8 | 0 | 0.0 | 0.0 | 0.00 | 0.03 | 0.00 | 98 | 1019.0 |
| 20260502021549 | 8 | 0 | 0.0 | 0.0 | 0.00 | 0.03 | 0.00 | 98 | 1019.2 |
| 20260502020047 | 8 | 0 | 0.0 | 0.0 | 0.00 | 0.03 | 0.00 | 98 | 1019.2 |
| 20260502014558 | 8 | 0 | 0.0 | 0.0 | 0.00 | 0.03 | 0.00 | 98 | 1019.4 |
| 20260502013055 | 8 | 0 | 0.0 | 0.0 | 0.00 | 0.03 | 0.00 | 98 | 1019.6 |
| 20260502011551 | 8 | 0 | 0.0 | 0.0 | 0.00 | 0.03 | 0.00 | 98 | 1019.7 |
| 20260502010058 | 8 | 0 | 0.0 | 0.0 | 0.00 | 0.03 | 0.00 | 98 | 1019.8 |
| 20260502004546 | 8 | 0 | 0.0 | 0.0 | 0.00 | 0.03 | 0.00 | 98 | 1019.8 |
| 20260502003052 | 9 | 0 | 0.0 | 0.0 | 0.00 | 0.03 | 0.00 | 98 | 1020.0 |
| 20260502001547 | 9 | 0 | 0.0 | 0.0 | 0.00 | 0.03 | 0.00 | 98 | 1020.1 |
| 20260502000054 | 9 | 0 | 0.0 | 0.0 | 0.00 | 0.03 | 0.00 | 97 | 1020.0 |
| 20260501234550 | 9 | 0 | 0.0 | 0.0 | 0.00 | 0.03 | 0.00 | 97 | 1020.2 |
| 20260501233102 | 10 | 0 | 0.0 | 0.0 | 0.00 | 0.03 | 0.00 | 97 | 1020.1 |
| 20260501231557 | 10 | 0 | 0.0 | 0.0 | 0.00 | 0.03 | 0.00 | 97 | 1020.2 |
| 20260501230047 | 10 | 0 | 0.0 | 0.0 | 0.00 | 0.03 | 0.00 | 97 | 1020.3 |
| 20260501224554 | 10 | 0 | 0.0 | 0.0 | 0.00 | 0.03 | 0.03 | 97 | 1020.3 |
| 20260501223052 | 10 | 0 | 0.0 | 1.6 | 0.00 | 0.03 | 0.03 | 96 | 1020.5 |
| 20260501221551 | 10 | 0 | 0.0 | 0.0 | 0.00 | 0.03 | 0.03 | 97 | 1020.6 |
| 20260501220059 | 10 | 0 | 0.0 | 0.0 | 0.00 | 0.03 | 0.03 | 97 | 1020.8 |
| 20260501214544 | 10 | 0 | 0.0 | 0.0 | 0.00 | 0.03 | 0.03 | 96 | 1020.6 |
| 20260501213050 | 10 | 0 | 0.0 | 0.0 | 0.00 | 0.03 | 0.03 | 96 | 1020.6 |
| 20260501211546 | 10 | 0 | 0.0 | 0.0 | 0.00 | 0.03 | 0.03 | 96 | 1020.5 |